Date String (YYYY-MM-DD hh:mm:ss) UTC,Instrument flags,Ambient pressure (hPa),Sample flow (lpm),Bypass flow (lpm),Sample temperature (°C),Ambient temperature (°C),ASC tube jacket temperature (°C),LED temperature (°C),Box temperature (°C),Sample RH (%),Span deviation,Mass concentration (μg/m³),Mass concentration (μg/m³),Mass concentration (μg/m³)
DateTimeUTC,F1_M11,P_M11,Q1_M11,Q2_M11,T1_M11,T2_M11,T3_M11,T4_M11,T5_M11,U1_M11,ZSPAN_M11,X2_M11,X0_M11,X1_M11
2022-03-18 20:00:00,,0824.5,4.99,0.00,24.1,23.5,00.0,32.9,25.9,12.4,0000.0,0005.81,0010.30,0005.17
2022-03-18 20:01:00,,0824.5,5.00,0.00,24.1,23.5,00.0,32.9,25.9,12.3,0000.0,0005.84,0010.86,0005.20
2022-03-18 20:02:00,,0824.5,5.01,0.00,24.1,23.5,00.0,32.9,25.9,11.8,0000.0,0005.89,0011.39,0005.22
2022-03-18 20:03:00,,0824.5,4.99,0.00,24.1,23.5,00.0,33.0,25.9,11.4,0000.0,0005.91,0011.60,0005.23
2022-03-18 20:04:00,,0824.4,5.00,0.00,24.1,23.5,00.0,33.0,25.9,11.3,0000.0,0005.87,0011.25,0005.19
2022-03-18 20:05:00,,0824.5,5.00,0.00,24.1,23.6,00.0,33.0,26.0,11.5,0000.0,0005.82,0010.92,0005.15
2022-03-18 20:06:00,,0824.4,4.99,0.00,24.2,23.6,00.0,33.0,26.0,12.1,0000.0,0005.75,0011.23,0005.11
2022-03-18 20:07:00,,0824.5,5.01,0.00,24.2,23.6,00.0,33.0,26.0,12.0,0000.0,0005.71,0012.27,0005.09
2022-03-18 20:08:00,,0824.4,5.00,0.00,24.2,23.6,00.0,33.0,26.1,12.0,0000.0,0005.72,0012.71,0005.06
2022-03-18 20:09:00,,0824.4,5.00,0.00,24.2,23.7,00.0,33.0,26.1,12.1,0000.0,0005.73,0012.64,0005.04
2022-03-18 20:10:00,,0824.4,4.99,0.00,24.2,23.7,00.0,33.1,26.1,11.6,0000.0,0005.76,0012.72,0005.00
2022-03-18 20:11:00,,0824.4,5.00,0.00,24.2,23.7,00.0,33.1,26.0,11.9,0000.0,0005.73,0012.80,0004.96
2022-03-18 20:12:00,,0824.4,5.02,0.00,24.2,23.7,00.0,33.1,26.1,11.7,0000.0,0005.73,0012.41,0004.93
2022-03-18 20:13:00,,0824.3,4.99,0.00,24.3,23.7,00.0,33.1,26.1,11.6,0000.0,0005.71,0012.33,0004.91
2022-03-18 20:14:00,,0824.3,4.99,0.00,24.3,23.7,00.0,33.1,26.2,11.8,0000.0,0005.69,0012.51,0004.88
2022-03-18 20:15:00,,0824.4,5.01,0.00,24.3,23.7,00.0,33.1,26.2,11.3,0000.0,0005.68,0012.46,0004.86
2022-03-18 20:16:00,,0824.3,4.99,0.00,24.3,23.8,00.0,33.1,26.2,11.3,0000.0,0005.65,0012.23,0004.84
2022-03-18 20:17:00,,0824.3,4.99,0.00,24.3,23.8,00.0,33.2,26.2,11.1,0000.0,0005.63,0012.27,0004.80
2022-03-18 20:18:00,,0824.3,5.01,0.00,24.4,23.8,00.0,33.2,26.3,11.3,0000.0,0005.58,0011.17,0004.76
2022-03-18 20:19:00,,0824.3,4.99,0.00,24.4,23.8,00.0,33.2,26.3,11.5,0000.0,0005.50,0010.68,0004.71
2022-03-18 20:20:00,,0824.3,5.02,0.00,24.4,23.9,00.0,33.2,26.3,12.7,0000.0,0005.43,0010.47,0004.68
2022-03-18 20:21:00,,0824.3,4.99,0.00,24.4,23.9,00.0,33.2,26.3,11.7,0000.0,0005.37,0010.30,0004.64
2022-03-18 20:22:00,,0824.3,4.99,0.00,24.4,23.9,00.0,33.3,26.3,11.3,0000.0,0005.31,0010.17,0004.62
2022-03-18 20:23:00,,0824.3,5.01,0.00,24.4,23.8,00.0,33.3,26.3,11.0,0000.0,0005.23,0010.06,0004.59
2022-03-18 20:24:00,,0824.3,5.00,0.00,24.4,23.8,00.0,33.3,26.3,11.2,0000.0,0005.22,0009.48,0004.58
2022-03-18 20:25:00,,0824.3,5.01,0.00,24.4,23.8,00.0,33.3,26.3,11.0,0000.0,0005.19,0009.10,0004.58
2022-03-18 20:26:00,,0824.3,5.00,0.00,24.4,23.9,00.0,33.3,26.3,11.3,0000.0,0005.20,0009.66,0004.57
2022-03-18 20:27:00,,0824.2,5.01,0.00,24.5,23.9,00.0,33.3,26.4,11.0,0000.0,0005.20,0010.72,0004.58
2022-03-18 20:28:00,,0824.2,5.00,0.00,24.5,23.9,00.0,33.3,26.3,11.0,0000.0,0005.18,0010.60,0004.58
2022-03-18 20:29:00,,0824.2,4.99,0.00,24.5,24.0,00.0,33.3,26.4,11.6,0000.0,0005.18,0010.49,0004.59
2022-03-18 20:30:00,,0824.2,5.00,0.00,24.5,24.0,00.0,33.4,26.4,11.7,0000.0,0005.16,0010.48,0004.59
2022-03-18 20:31:00,,0824.1,5.00,0.00,24.6,24.0,00.0,33.4,26.4,11.7,0000.0,0005.15,0010.50,0004.58
2022-03-18 20:32:00,,0824.1,5.00,0.00,24.6,24.0,00.0,33.4,26.4,11.3,0000.0,0005.09,0010.82,0004.56
2022-03-18 20:33:00,,0824.1,5.01,0.00,24.6,24.0,00.0,33.4,26.4,11.4,0000.0,0005.04,0010.98,0004.51
2022-03-18 20:34:00,,0824.1,4.99,0.00,24.6,24.0,00.0,33.4,26.5,11.1,0000.0,0004.98,0010.91,0004.44
2022-03-18 20:35:00,,0824.1,4.99,0.00,24.6,24.0,00.0,33.4,26.5,11.0,0000.0,0004.87,0010.84,0004.33
2022-03-18 20:36:00,,0824.1,5.03,0.00,24.6,24.0,00.0,33.4,26.5,10.6,0000.0,0004.77,0010.82,0004.22
2022-03-18 20:37:00,,0824.1,5.00,0.00,24.6,24.0,00.0,33.4,26.4,10.5,0000.0,0004.64,0010.17,0004.11
2022-03-18 20:38:00,,0824.1,4.99,0.00,24.6,24.0,00.0,33.5,26.4,10.5,0000.0,0004.54,0009.06,0004.01
2022-03-18 20:39:00,,0824.1,5.01,0.00,24.6,24.0,00.0,33.5,26.4,10.5,0000.0,0004.45,0008.54,0003.91
2022-03-18 20:40:00,,0824.1,4.99,0.00,24.6,24.0,00.0,33.5,26.5,10.7,0000.0,0004.34,0008.51,0003.82
2022-03-18 20:41:00,,0824.0,5.00,0.00,24.7,24.1,00.0,33.5,26.5,10.4,0000.0,0004.21,0008.89,0003.71
2022-03-18 20:42:00,,0824.1,5.00,0.00,24.7,24.1,00.0,33.5,26.5,10.5,0000.0,0004.11,0008.89,0003.61
2022-03-18 20:43:00,,0824.1,5.01,0.00,24.7,24.1,00.0,33.5,26.5,11.2,0000.0,0004.08,0008.52,0003.55
2022-03-18 20:44:00,,0824.1,5.00,0.00,24.7,24.1,00.0,33.5,26.5,11.2,0000.0,0004.05,0008.32,0003.52
2022-03-18 20:45:00,,0824.1,4.99,0.00,24.7,24.1,00.0,33.5,26.5,11.0,0000.0,0004.02,0008.20,0003.52
2022-03-18 20:46:00,,0824.1,5.00,0.00,24.7,24.1,00.0,33.5,26.5,10.5,0000.0,0004.05,0008.38,0003.55
2022-03-18 20:47:00,,0824.1,5.01,0.00,24.7,24.1,00.0,33.5,26.5,10.6,0000.0,0004.06,0008.73,0003.57
2022-03-18 20:48:00,,0824.1,5.00,0.00,24.7,24.1,00.0,33.6,26.5,11.2,0000.0,0004.16,0008.96,0003.61
2022-03-18 20:49:00,,0824.1,4.99,0.00,24.7,24.1,00.0,33.6,26.5,11.6,0000.0,0004.24,0009.03,0003.66
2022-03-18 20:50:00,,0824.1,5.01,0.00,24.7,24.1,00.0,33.6,26.5,10.6,0000.0,0004.19,0009.04,0003.61
2022-03-18 20:51:00,,0824.1,4.99,0.00,24.7,24.0,00.0,33.6,26.5,10.9,0000.0,0004.21,0008.97,0003.59
2022-03-18 20:52:00,,0824.0,5.00,0.00,24.6,24.0,00.0,33.6,26.4,10.6,0000.0,0004.31,0008.53,0003.65
2022-03-18 20:53:00,,0824.1,5.00,0.00,24.6,24.0,00.0,33.6,26.4,10.8,0000.0,0004.33,0008.40,0003.66
2022-03-18 20:54:00,,0824.1,5.01,0.00,24.6,24.0,00.0,33.6,26.4,10.0,0000.0,0004.20,0008.11,0003.58
2022-03-18 20:55:00,,0824.0,5.01,0.00,24.7,24.0,00.0,33.6,26.5,08.7,0000.0,0004.06,0007.93,0003.44
2022-03-18 20:56:00,,0823.9,4.99,0.00,24.7,24.1,00.0,33.6,26.5,07.6,0000.0,0003.90,0007.75,0003.29
2022-03-18 20:57:00,,0823.9,5.00,0.00,24.7,24.1,00.0,33.6,26.6,07.8,0000.0,0003.75,0007.36,0003.13
2022-03-18 20:58:00,,0823.9,5.00,0.00,24.7,24.1,00.0,33.6,26.6,06.9,0000.0,0003.54,0006.31,0002.88
2022-03-18 20:59:00,,0824.0,5.01,0.00,24.8,24.1,00.0,33.6,26.6,07.0,0000.0,0003.29,0006.56,0002.56
